This is the latest recevied weather packets stored in our database for station/object SR4DIG-13. If no packets are shown the sender has not sent any weather packets the latest 10 day(s).
| Time | Temp. | Humidity | Pressure | Rain* | Wind** | Luminosity | Snow |
|---|---|---|---|---|---|---|---|
| 1777787754 | 20° C | 41% | 1017.3 hPa | 0 mm | - | - | - |
| 1777787453 | 20° C | 41% | 1017.2 hPa | 0 mm | - | - | - |
| 1777787152 | 19.44° C | 42% | 1017.3 hPa | 0 mm | - | - | - |
| 1777786851 | 18.33° C | 43% | 1017.2 hPa | 0 mm | - | - | - |
| 1777786270 | 18.33° C | 44% | 1017.2 hPa | 0 mm | - | - | - |
| 1777785970 | 17.22° C | 45% | 1017.3 hPa | 0 mm | - | - | - |
| 1777785669 | 17.22° C | 45% | 1017.2 hPa | 0 mm | - | - | - |
| 1777785067 | 15.56° C | 47% | 1017.3 hPa | 0 mm | - | - | - |
| 1777784766 | 15.56° C | 48% | 1017.2 hPa | 0 mm | - | - | - |
| 1777784466 | 14.44° C | 50% | 1017.3 hPa | 0 mm | - | - | - |
| 1777784044 | 14.44° C | 50% | 1017.3 hPa | 0 mm | - | - | - |
| 1777783744 | 14.44° C | 50% | 1017.3 hPa | 0 mm | - | - | - |
| 1777783142 | 12.78° C | 53% | 1017.4 hPa | 0 mm | - | - | - |
| 1777782605 | 12.78° C | 53% | 1017.2 hPa | 0 mm | - | - | - |
| 1777782304 | 12.78° C | 54% | 1017.2 hPa | 0 mm | - | - | - |
| 1777782003 | 12.22° C | 55% | 1017.1 hPa | 0 mm | - | - | - |
| 1777781702 | 11.67° C | 56% | 1017 hPa | 0 mm | - | - | - |
| 1777781401 | 11.67° C | 56% | 1017 hPa | 0 mm | - | - | - |
| 1777781100 | 11.11° C | 56% | 1017.1 hPa | 0 mm | - | - | - |
| 1777780800 | 11.11° C | 56% | 1017 hPa | 0 mm | - | - | - |
| 1777780421 | 11.11° C | 56% | 1017.1 hPa | 0 mm | - | - | - |
| 1777780120 | 10.56° C | 57% | 1017.1 hPa | 0 mm | - | - | - |
| 1777779819 | 10.56° C | 57% | 1017.1 hPa | 0 mm | - | - | - |
| 1777779518 | 10° C | 57% | 1017.1 hPa | 0 mm | - | - | - |
| 1777778642 | 10° C | 57% | 1017.2 hPa | 0 mm | - | - | - |
* Rain since midnight (hover to see other rain measurements)
** Current wind speed in m/s (hover to see current wind gust speed)